Regional Weather Roundup
Issued by NWS

Home | Current Version | Previous Version | Text Only | Print | Product List | Glossary Off
Versions: 1 2 3 4 5 6 7 8 9 10 11 12 13 14 15 16 17 18 19 20 21 22 23 24 25 26 27 28 29 30 31 32 33 34 35 36 37 38 39 40 41 42 43 44 45 46 47 48 49 50

000
ASUS43 KBIS 311920
RWRND

NORTH DAKOTA REGIONAL WEATHER ROUNDUP
NATIONAL WEATHER SERVICE BISMARCK ND
200 PM CDT THU JUL 31 2014

NOTE: "FAIR" INDICATES FEW OR NO CLOUDS BELOW 12,000 FEET WITH NO
SIGNIFICANT WEATHER AND/OR OBSTRUCTIONS TO VISIBILITY.


NDZ001>003-009>011-017-312000-
NORTHWEST NORTH DAKOTA

CITY           SKY/WX    TMP DP  RH WIND       PRES   REMARKS
WILLISTON      PTSUNNY   78  61  55 S6        30.07F
MINOT          SUNNY     81  52  36 CALM      30.08S
MINOT AFB      SUNNY     79  56  45 SW6       30.07F
$$

NDZ018>021-031>035-040>046-312000-
SOUTHWEST NORTH DAKOTA

CITY           SKY/WX    TMP DP  RH WIND       PRES   REMARKS
BISMARCK       SUNNY     84  54  35 VRB5      30.08S
DICKINSON      SUNNY     82  53  36 VRB5      30.08F
GARRISON         N/A     79  58  48 S5        30.09S
HETTINGER ARPT MOSUNNY   83  50  31 CALM      30.11F
$$

NDZ004>008-012>016-024-026-027-054-312000-
NORTHEAST NORTH DAKOTA

CITY           SKY/WX    TMP DP  RH WIND       PRES   REMARKS
GRAND FORKS    MOSUNNY   79  64  61 NW5       30.01F
GRND FRKS AFB  SUNNY     81  60  48 VRB5      30.02F
DEVILS LAKE    MOSUNNY   79  57  47 N5        30.05S
$$

NDZ022-023-025-028>030-036>039-047>053-312000-
SOUTHEAST NORTH DAKOTA

CITY           SKY/WX    TMP DP  RH WIND       PRES   REMARKS
FARGO          MOSUNNY   83  58  42 N9        30.02S
JAMESTOWN      MOSUNNY   81  55  40 NE5       30.06S
$$




USA.gov is the U.S. government's official web portal to all federal, state and local government web resources and services.